STARLINK-5193, 54095

Orbit data source: Space-Track

STARLINK-5193, 54095 is a payload satellite owned by SpaceX/Seattle (US) in LEO that was launched on Thu, 20 Oct 2022 UTC via an FALCON 9 launch vehicle from the Air Force Eastern Test Range (AFETR). Payload-class satellites include a variety of spacecraft equipped with specific instruments for various scientific and technological missions. These include communications satellites like Starlink; space stations such as the ISS; scientific satellites like the Hubble; Earth observation satellites from companies like Planet Labs, Umbra, and HawkEye 360; GPS; miniature CubeSats for education and research; and military/defense satellites.

Loading next visibility...
Identifier
54095, 2022-136AW
Orbit
LEO
Country
Flag of USUS
Related business
Manufacturer
SpaceX/Seattle
Mission
Operational Commercial Communications
Bus & Motor
STARLINK, Unknown motor
Mass
305 kg wet, ~290 kg dry
Launch date (UTC)
2022-10-20 (3 years ago)
Launch vehicle
FALCON 9
Launch site
Air Force Eastern Test Range (AFETR)
Object type
Payload
Rocket body
Debris
Shape & HBR
Box + 1 Pan, 10.1 m
Radar Cross Section
13.562 m², Large (>1 m²)

Expand to show TLE details & history
Last TLE update: 14 hours ago

TLE from 14 hours ago
0 STARLINK-5193
1 54095U 22136AW  25304.02442546 -.00002018  00000-0 -10882-3 0  9993
2 54095  53.2162 195.8830 0001456  87.6628 272.4530 15.08819609167410
Epoch: 2025-10-31T00:35Z
TLE epoch observation values (Epoch: 2025-10-31T00:35:10.359Z)
Latitude
-0.0001°
Longitude
147.51496°
Altitude
540.66 km
Speed
7.593 km/s
True Right ascension
13h 03m 31s
True Declination
0° 00' 00"
Sunlit
Object was in daylight at epoch
Visualization orbit readout
Latitude
Unknown
Longitude
Unknown
Altitude
Unknown
Speed
Unknown
Apparent Right ascension
Unknown
Apparent Declination
Unknown
Sunlit
N/A
Visualization observer readout
Local Sidereal Time
10:07:10
Azimuth
Unknown
Elevation
Unknown
Doppler factor
Unknown
Orbital elements
Apogee altitude
541.058 km
Perigee altitude
539.044 km
Semi-major axis
6,918.188 km
Eccentricity
0.00015
Inclination
53.2162°
RAAN
195.883°
Arg. of periapsis
87.6628°
True anomaly
272.43633°
Mean anomaly
272.453°
Eccentric anomaly
272.44467°
Mean motion
3.77185 °/min
Orbital period
95.44 mins
BSTAR
-0.00010882
Loading maneuver chart data...
Computing Atmospheric mass density...
Loading historical data...
Loading historical data...
Loading historical data...
Loading historical data...
Loading historical data...
Loading historical data...
Loading historical data...

Documentation

Showing up to 5 results
|